Time,TemperatureF,DewpointF,PressureIn,WindDirection,WindDirectionDegrees,WindSpeedMPH,WindSpeedGustMPH,Humidity,HourlyPrecipIn,Conditions,Clouds,dailyrainin,SolarRadiationWatts/m^2,SoftwareType,DateUTC
2013-02-19 00:00:00,36.4,31.1,30.29,NNE,20,0.0,0.0,81,0.00,RA,SKC,0.00,0.0,WeatherDisplay:10.37,2013-02-19 05:00:00,
2013-02-19 00:03:00,36.4,31.1,30.29,NNE,20,0.0,0.0,81,0.00,RA,SKC,0.00,0.0,WeatherDisplay:10.37,2013-02-19 05:03:00,
2013-02-19 00:08:00,36.3,31.3,30.29,NNE,20,0.0,0.0,82,0.00,RA,SKC,0.00,0.0,WeatherDisplay:10.37,2013-02-19 05:08:00,
2013-02-19 00:13:00,36.0,31.0,30.29,NNE,20,0.0,0.0,82,0.00,CLR,SKC,0.00,0.0,WeatherDisplay:10.37,2013-02-19 05:13:00,
2013-02-19 00:18:00,36.1,31.1,30.29,NNE,20,0.0,0.0,82,0.00,CLR,SKC,0.00,0.0,WeatherDisplay:10.37,2013-02-19 05:18:00,
2013-02-19 00:23:00,35.7,30.7,30.29,NNE,20,0.0,0.0,82,0.00,CLR,SKC,0.00,0.0,WeatherDisplay:10.37,2013-02-19 05:23:00,
2013-02-19 00:28:00,35.7,31.0,30.28,NNE,20,0.0,0.0,83,0.00,CLR,SKC,0.00,0.0,WeatherDisplay:10.37,2013-02-19 05:28:00,
2013-02-19 00:33:00,35.9,31.2,30.28,NNE,20,0.0,0.0,83,0.00,CLR,SKC,0.00,0.0,WeatherDisplay:10.37,2013-02-19 05:33:00,
2013-02-19 00:34:00,35.7,31.0,30.28,NNE,20,0.0,0.0,83,0.00,CLR,SKC,0.00,0.0,WeatherDisplay:10.37,2013-02-19 05:34:00,
2013-02-19 00:39:00,35.5,30.8,30.27,NNE,20,0.0,0.0,83,0.00,CLR,SKC,0.00,0.0,WeatherDisplay:10.37,2013-02-19 05:39:00,
2013-02-19 00:44:00,35.5,30.8,30.27,NNE,20,0.0,0.0,83,0.00,CLR,SKC,0.00,0.0,WeatherDisplay:10.37,2013-02-19 05:44:00,
2013-02-19 00:49:00,35.4,30.8,30.26,NNE,20,0.0,0.0,83,0.00,CLR,SKC,0.00,0.0,WeatherDisplay:10.37,2013-02-19 05:49:00,
2013-02-19 00:52:00,35.3,30.9,30.26,NNE,20,0.0,0.0,84,0.00,CLR,SKC,0.00,0.0,WeatherDisplay:10.37,2013-02-19 05:52:00,
2013-02-19 00:57:00,35.3,30.9,30.26,SSW,200,0.0,0.0,84,0.00,CLR,SKC,0.00,0.0,WeatherDisplay:10.37,2013-02-19 05:57:00,
2013-02-19 01:02:00,34.9,30.8,30.26,SSW,200,0.0,0.0,85,0.00,CLR,SKC,0.00,0.0,WeatherDisplay:10.37,2013-02-19 06:02:00,
2013-02-19 01:08:00,34.6,30.3,30.25,SSW,200,0.0,0.0,84,0.00,CLR,SKC,0.00,0.0,WeatherDisplay:10.37,2013-02-19 06:08:00,
2013-02-19 01:13:00,34.7,30.7,30.25,SSW,200,0.0,0.0,85,0.00,CLR,SKC,0.00,0.0,WeatherDisplay:10.37,2013-02-19 06:13:00,
2013-02-19 01:19:00,34.4,30.4,30.25,SSW,200,0.0,0.0,85,0.00,CLR,SKC,0.00,0.0,WeatherDisplay:10.37,2013-02-19 06:19:00,
2013-02-19 01:24:00,34.4,30.4,30.25,SSW,200,0.0,0.0,85,0.00,CLR,SKC,0.00,0.0,WeatherDisplay:10.37,2013-02-19 06:24:00,
2013-02-19 01:30:00,34.6,30.6,30.25,SSW,200,0.0,0.0,85,0.00,CLR,SKC,0.00,0.0,WeatherDisplay:10.37,2013-02-19 06:30:00,
2013-02-19 01:35:00,34.6,30.6,30.25,NNW,328,0.0,0.0,85,0.00,CLR,SKC,0.00,0.0,WeatherDisplay:10.37,2013-02-19 06:35:00,
2013-02-19 01:40:00,34.7,30.7,30.24,NNW,328,0.0,0.0,85,0.00,CLR,SKC,0.00,0.0,WeatherDisplay:10.37,2013-02-19 06:40:00,
2013-02-19 01:45:00,34.4,30.4,30.24,NNW,328,0.0,0.0,85,0.00,CLR,SKC,0.00,0.0,WeatherDisplay:10.37,2013-02-19 06:45:00,
2013-02-19 01:50:00,34.5,30.7,30.24,NNW,328,0.0,0.0,86,0.00,CLR,SKC,0.00,0.0,WeatherDisplay:10.37,2013-02-19 06:50:00,
2013-02-19 01:55:00,34.2,30.4,30.24,North,349,1.1,1.1,86,0.00,CLR,SKC,0.00,0.0,WeatherDisplay:10.37,2013-02-19 06:55:00,
2013-02-19 02:00:00,34.1,30.6,30.24,NW,318,1.7,0.0,87,0.00,CLR,SKC,0.00,0.0,WeatherDisplay:10.37,2013-02-19 07:00:00,
2013-02-19 02:05:00,34.1,30.6,30.23,NW,320,0.0,0.0,87,0.00,CLR,SKC,0.00,0.0,WeatherDisplay:10.37,2013-02-19 07:05:00,
2013-02-19 02:10:00,34.0,30.5,30.23,NW,320,0.0,0.0,87,0.00,CLR,SKC,0.00,0.0,WeatherDisplay:10.37,2013-02-19 07:10:00,
2013-02-19 02:16:00,34.0,30.5,30.23,NW,320,0.0,0.0,87,0.00,CLR,SKC,0.00,0.0,WeatherDisplay:10.37,2013-02-19 07:16:00,
2013-02-19 02:21:00,33.8,30.6,30.22,NW,320,0.0,0.0,88,0.00,CLR,SKC,0.00,0.0,WeatherDisplay:10.37,2013-02-19 07:21:00,
2013-02-19 02:26:00,33.8,30.6,30.23,NW,320,0.0,0.0,88,0.00,CLR,SKC,0.00,0.0,WeatherDisplay:10.37,2013-02-19 07:26:00,
2013-02-19 02:31:00,34.0,30.8,30.22,NW,320,0.0,0.0,88,0.00,CLR,SKC,0.00,0.0,WeatherDisplay:10.37,2013-02-19 07:31:00,
2013-02-19 02:36:00,33.6,30.4,30.22,NW,320,0.0,0.0,88,0.00,CLR,SKC,0.00,0.0,WeatherDisplay:10.37,2013-02-19 07:36:00,
2013-02-19 02:41:00,33.5,30.6,30.22,NW,320,0.0,0.0,89,0.00,CLR,SKC,0.00,0.0,WeatherDisplay:10.37,2013-02-19 07:41:00,
2013-02-19 02:46:00,34.0,31.1,30.23,NW,320,0.0,0.0,89,0.00,CLR,SKC,0.00,0.0,WeatherDisplay:10.37,2013-02-19 07:46:00,
2013-02-19 02:51:00,33.6,31.0,30.22,NW,320,0.0,0.0,90,0.00,CLR,SKC,0.00,0.0,WeatherDisplay:10.37,2013-02-19 07:51:00,
2013-02-19 02:56:00,33.3,30.7,30.22,NW,320,0.0,0.0,90,0.00,CLR,SKC,0.00,0.0,WeatherDisplay:10.37,2013-02-19 07:56:00,
2013-02-19 03:01:00,33.1,30.8,30.22,NW,320,0.0,0.0,91,0.00,CLR,SKC,0.00,0.0,WeatherDisplay:10.37,2013-02-19 08:01:00,
2013-02-19 03:06:00,33.2,30.9,30.22,NW,320,0.0,0.0,91,0.00,CLR,SKC,0.00,0.0,WeatherDisplay:10.37,2013-02-19 08:06:00,
2013-02-19 03:11:00,33.2,30.9,30.22,NW,320,0.0,0.0,91,0.00,CLR,SKC,0.00,0.0,WeatherDisplay:10.37,2013-02-19 08:11:00,
2013-02-19 03:16:00,33.1,31.3,30.21,NW,320,0.0,0.0,93,0.00,CLR,SKC,0.00,0.0,WeatherDisplay:10.37,2013-02-19 08:16:00,
2013-02-19 03:21:00,33.0,30.9,30.21,NW,320,0.0,0.0,92,0.00,CLR,SKC,0.00,0.0,WeatherDisplay:10.37,2013-02-19 08:21:00,
2013-02-19 03:26:00,33.2,31.4,30.20,NW,320,0.0,0.0,93,0.00,CLR,SKC,0.00,0.0,WeatherDisplay:10.37,2013-02-19 08:26:00,
2013-02-19 03:31:00,33.3,31.5,30.20,NW,320,0.0,0.0,93,0.00,CLR,SKC,0.00,0.0,WeatherDisplay:10.37,2013-02-19 08:31:00,
2013-02-19 03:36:00,33.4,31.6,30.20,NW,320,0.0,0.0,93,0.00,CLR,SKC,0.00,0.0,WeatherDisplay:10.37,2013-02-19 08:36:00,
2013-02-19 03:41:00,33.4,31.6,30.20,NW,320,0.0,0.0,93,0.00,CLR,SKC,0.00,0.0,WeatherDisplay:10.37,2013-02-19 08:41:00,
2013-02-19 03:46:00,33.6,31.8,30.19,NW,320,0.0,0.0,93,0.00,CLR,SKC,0.00,0.0,WeatherDisplay:10.37,2013-02-19 08:46:00,
2013-02-19 03:51:00,33.6,32.1,30.19,NW,320,0.0,0.0,94,0.00,CLR,SKC,0.00,0.0,WeatherDisplay:10.37,2013-02-19 08:51:00,
2013-02-19 03:56:00,33.5,32.0,30.19,NW,320,0.0,0.0,94,0.00,CLR,SKC,0.00,0.0,WeatherDisplay:10.37,2013-02-19 08:56:00,
2013-02-19 04:01:00,33.7,32.2,30.19,NW,320,0.0,0.0,94,0.00,CLR,SKC,0.00,0.0,WeatherDisplay:10.37,2013-02-19 09:01:00,
2013-02-19 04:06:00,33.4,31.9,30.18,NW,320,0.0,0.0,94,0.00,CLR,SKC,0.00,0.0,WeatherDisplay:10.37,2013-02-19 09:06:00,
2013-02-19 04:11:00,33.3,32.0,30.18,NW,320,0.0,0.0,95,0.00,CLR,SKC,0.00,0.0,WeatherDisplay:10.37,2013-02-19 09:11:00,
2013-02-19 04:16:00,33.3,31.8,30.18,NW,320,0.0,0.0,94,0.00,CLR,SKC,0.00,0.0,WeatherDisplay:10.37,2013-02-19 09:16:00,
2013-02-19 04:21:00,33.5,32.2,30.17,NW,320,0.0,0.0,95,0.00,CLR,SKC,0.00,0.0,WeatherDisplay:10.37,2013-02-19 09:21:00,
2013-02-19 04:26:00,33.1,31.8,30.17,NW,320,0.0,0.0,95,0.00,CLR,SKC,0.00,0.0,WeatherDisplay:10.37,2013-02-19 09:26:00,
2013-02-19 04:31:00,32.9,31.6,30.17,NW,320,0.0,0.0,95,0.00,CLR,SKC,0.00,0.0,WeatherDisplay:10.37,2013-02-19 09:31:00,
2013-02-19 04:36:00,33.0,32.0,30.17,NW,320,0.0,0.0,96,0.00,CLR,SKC,0.00,0.0,WeatherDisplay:10.37,2013-02-19 09:36:00,
2013-02-19 04:41:00,33.1,32.1,30.17,NW,320,0.0,0.0,96,0.00,CLR,SKC,0.00,0.0,WeatherDisplay:10.37,2013-02-19 09:41:00,
2013-02-19 04:46:00,33.1,32.1,30.16,NW,320,0.0,0.0,96,0.00,CLR,SKC,0.00,0.0,WeatherDisplay:10.37,2013-02-19 09:46:00,
2013-02-19 04:51:00,33.1,32.1,30.16,NW,320,0.0,0.0,96,0.00,CLR,SKC,0.00,0.0,WeatherDisplay:10.37,2013-02-19 09:51:00,
2013-02-19 04:56:00,33.1,32.1,30.16,NW,320,0.0,0.0,96,0.00,CLR,SKC,0.00,0.0,WeatherDisplay:10.37,2013-02-19 09:56:00,
2013-02-19 05:01:00,33.1,32.1,30.16,NW,320,0.0,0.0,96,0.00,CLR,SKC,0.00,0.0,WeatherDisplay:10.37,2013-02-19 10:01:00,
2013-02-19 05:06:00,33.0,32.0,30.16,NW,320,0.0,0.0,96,0.00,CLR,SKC,0.00,0.0,WeatherDisplay:10.37,2013-02-19 10:06:00,
2013-02-19 05:11:00,33.0,32.0,30.16,NW,320,0.0,0.0,96,0.00,CLR,SKC,0.00,0.0,WeatherDisplay:10.37,2013-02-19 10:11:00,
2013-02-19 05:17:00,33.1,32.1,30.17,NW,320,0.0,0.0,96,0.00,CLR,SKC,0.00,0.0,WeatherDisplay:10.37,2013-02-19 10:17:00,
2013-02-19 05:22:00,33.4,32.4,30.17,NW,320,0.0,0.0,96,0.00,CLR,SKC,0.00,0.0,WeatherDisplay:10.37,2013-02-19 10:22:00,
2013-02-19 05:27:00,33.4,32.4,30.16,NW,320,0.0,0.0,96,0.00,CLR,SKC,0.00,0.0,WeatherDisplay:10.37,2013-02-19 10:27:00,
2013-02-19 05:32:00,33.2,32.2,30.16,NW,320,0.0,0.0,96,0.00,CLR,SKC,0.00,0.0,WeatherDisplay:10.37,2013-02-19 10:32:00,
2013-02-19 05:37:00,33.2,32.2,30.16,NW,320,0.0,0.0,96,0.00,CLR,SKC,0.00,0.0,WeatherDisplay:10.37,2013-02-19 10:37:00,
2013-02-19 05:42:00,33.4,32.4,30.15,NW,320,0.0,0.0,96,0.00,CLR,SKC,0.00,0.0,WeatherDisplay:10.37,2013-02-19 10:42:00,
2013-02-19 05:47:00,33.3,32.3,30.15,WNW,302,1.1,0.0,96,0.00,CLR,SKC,0.00,0.0,WeatherDisplay:10.37,2013-02-19 10:47:00,
2013-02-19 05:52:00,33.7,32.7,30.14,WNW,302,0.0,0.0,96,0.00,CLR,SKC,0.00,0.0,WeatherDisplay:10.37,2013-02-19 10:52:00,
2013-02-19 05:57:00,33.7,32.7,30.14,WNW,302,0.0,0.0,96,0.00,CLR,SKC,0.00,0.0,WeatherDisplay:10.37,2013-02-19 10:57:00,
2013-02-19 06:02:00,34.1,33.1,30.14,WNW,302,0.0,0.0,96,0.00,CLR,SKC,0.00,0.0,WeatherDisplay:10.37,2013-02-19 11:02:00,
2013-02-19 06:08:00,33.8,32.8,30.14,WNW,302,0.0,0.0,96,0.00,CLR,SKC,0.00,0.0,WeatherDisplay:10.37,2013-02-19 11:08:00,
2013-02-19 06:14:00,33.8,32.8,30.14,WNW,302,0.0,0.0,96,0.00,CLR,SKC,0.00,0.0,WeatherDisplay:10.37,2013-02-19 11:14:00,
2013-02-19 06:19:00,33.9,32.9,30.14,WNW,302,0.0,0.0,96,0.00,CLR,SKC,0.00,0.0,WeatherDisplay:10.37,2013-02-19 11:19:00,
2013-02-19 06:24:00,33.9,32.9,30.14,NW,320,0.0,0.0,96,0.00,CLR,SKC,0.00,0.0,WeatherDisplay:10.37,2013-02-19 11:24:00,
2013-02-19 06:29:00,34.0,33.0,30.14,NW,320,0.0,0.0,96,0.00,CLR,SKC,0.00,0.0,WeatherDisplay:10.37,2013-02-19 11:29:00,
2013-02-19 06:34:00,34.3,33.3,30.14,WSW,250,0.0,0.0,96,0.00,CLR,SKC,0.00,0.0,WeatherDisplay:10.37,2013-02-19 11:34:00,
2013-02-19 06:39:00,34.6,33.6,30.15,West,281,1.1,1.1,96,0.00,CLR,SKC,0.00,0.0,WeatherDisplay:10.37,2013-02-19 11:39:00,
2013-02-19 06:44:00,34.8,33.8,30.14,West,275,0.6,0.6,96,0.00,CLR,SKC,0.00,0.0,WeatherDisplay:10.37,2013-02-19 11:44:00,
2013-02-19 06:49:00,34.9,33.9,30.14,WSW,239,0.0,0.0,96,0.00,CLR,SKC,0.00,0.0,WeatherDisplay:10.37,2013-02-19 11:49:00,
2013-02-19 06:54:00,34.8,33.8,30.14,WSW,239,0.0,0.0,96,0.00,CLR,SKC,0.00,0.0,WeatherDisplay:10.37,2013-02-19 11:54:00,
2013-02-19 06:59:00,34.9,33.9,30.14,WSW,239,0.0,0.0,96,0.00,CLR,SKC,0.00,0.0,WeatherDisplay:10.37,2013-02-19 11:59:00,
2013-02-19 07:04:00,35.1,34.1,30.14,WSW,239,0.0,0.0,96,0.00,CLR,SKC,0.00,0.0,WeatherDisplay:10.37,2013-02-19 12:04:00,
2013-02-19 07:09:00,35.3,34.3,30.14,West,264,0.0,0.0,96,0.00,CLR,SKC,0.00,0.0,WeatherDisplay:10.37,2013-02-19 12:09:00,
2013-02-19 07:14:00,35.7,34.7,30.14,West,264,0.0,0.0,96,0.00,CLR,SKC,0.00,0.0,WeatherDisplay:10.37,2013-02-19 12:14:00,
2013-02-19 07:19:00,36.2,35.2,30.14,North,8,0.0,0.0,96,0.00,CLR,SKC,0.00,0.0,WeatherDisplay:10.37,2013-02-19 12:19:00,
2013-02-19 07:24:00,36.9,35.9,30.14,West,274,0.0,0.0,96,0.00,CLR,SKC,0.00,0.0,WeatherDisplay:10.37,2013-02-19 12:24:00,
2013-02-19 07:29:00,37.3,36.3,30.13,West,274,0.0,0.0,96,0.00,CLR,SKC,0.00,0.0,WeatherDisplay:10.37,2013-02-19 12:29:00,
2013-02-19 07:40:00,39.4,38.4,30.13,West,265,2.9,0.0,96,0.00,CLR,SKC,0.00,0.0,WeatherDisplay:10.37,2013-02-19 12:40:00,
2013-02-19 07:45:00,40.2,38.6,30.13,NW,318,4.6,4.6,94,0.00,CLR,SKC,0.00,0.0,WeatherDisplay:10.37,2013-02-19 12:45:00,
2013-02-19 07:50:00,40.8,39.2,30.13,NNW,342,4.6,4.6,94,0.00,CLR,SKC,0.00,0.0,WeatherDisplay:10.37,2013-02-19 12:50:00,
2013-02-19 07:55:00,41.1,39.5,30.13,NW,316,0.0,0.0,94,0.00,CLR,SKC,0.00,0.0,WeatherDisplay:10.37,2013-02-19 12:55:00,
2013-02-19 08:00:00,41.6,39.7,30.13,NW,322,2.3,2.3,93,0.00,OVC,SKC,0.00,0.0,WeatherDisplay:10.37,2013-02-19 13:00:00,
2013-02-19 08:05:00,42.1,40.2,30.12,WNW,282,3.5,0.0,93,0.00,OVC,SKC,0.00,0.0,WeatherDisplay:10.37,2013-02-19 13:05:00,
2013-02-19 08:10:00,42.9,41.0,30.13,NNW,337,5.8,5.8,93,0.00,OVC,SKC,0.00,0.0,WeatherDisplay:10.37,2013-02-19 13:10:00,
2013-02-19 08:15:00,42.7,40.5,30.13,NW,320,4.6,4.6,92,0.00,OVC,SKC,0.00,0.0,WeatherDisplay:10.37,2013-02-19 13:15:00,
2013-02-19 08:20:00,43.1,40.9,30.13,NW,325,4.6,4.6,92,0.00,OVC,SKC,0.00,0.0,WeatherDisplay:10.37,2013-02-19 13:20:00,
2013-02-19 08:25:00,43.8,41.6,30.12,NW,323,3.5,3.5,92,0.00,OVC,SKC,0.00,0.0,WeatherDisplay:10.37,2013-02-19 13:25:00,
2013-02-19 08:30:00,43.7,41.5,30.12,WNW,298,4.6,4.6,92,0.00,OVC,SKC,0.00,0.0,WeatherDisplay:10.37,2013-02-19 13:30:00,
2013-02-19 08:35:00,43.8,41.3,30.12,NNW,339,4.6,4.6,91,0.00,OVC,SKC,0.00,0.0,WeatherDisplay:10.37,2013-02-19 13:35:00,
2013-02-19 08:40:00,44.4,41.9,30.12,NW,318,3.5,3.5,91,0.00,OVC,SKC,0.00,0.0,WeatherDisplay:10.37,2013-02-19 13:40:00,
2013-02-19 08:45:00,44.5,42.0,30.12,NNW,344,5.8,5.8,91,0.00,OVC,SKC,0.00,0.0,WeatherDisplay:10.37,2013-02-19 13:45:00,
2013-02-19 08:50:00,44.7,41.9,30.12,NNW,342,5.8,5.8,90,0.00,OVC,SKC,0.00,0.0,WeatherDisplay:10.37,2013-02-19 13:50:00,
2013-02-19 08:55:00,45.0,42.2,30.12,North,360,4.6,4.6,90,0.00,OVC,SKC,0.00,0.0,WeatherDisplay:10.37,2013-02-19 13:55:00,
2013-02-19 09:00:00,45.3,42.5,30.11,WNW,302,3.5,3.5,90,0.00,OVC,SKC,0.00,0.0,WeatherDisplay:10.37,2013-02-19 14:00:00,
2013-02-19 09:05:00,46.0,42.9,30.11,WSW,258,3.5,3.5,89,0.00,OVC,SKC,0.00,0.0,WeatherDisplay:10.37,2013-02-19 14:05:00,
2013-02-19 09:10:00,45.9,42.8,30.11,West,267,3.8,3.8,89,0.00,OVC,SKC,0.00,0.0,WeatherDisplay:10.37,2013-02-19 14:10:00,
2013-02-19 09:16:00,46.2,43.1,30.10,West,271,4.6,4.6,89,0.00,OVC,SKC,0.00,0.0,WeatherDisplay:10.37,2013-02-19 14:16:00,
2013-02-19 09:21:00,46.6,43.5,30.09,NNW,347,3.5,3.5,89,0.00,OVC,SKC,0.00,0.0,WeatherDisplay:10.37,2013-02-19 14:21:00,
2013-02-19 09:26:00,46.9,43.8,30.09,NNE,21,3.5,3.5,89,0.00,OVC,SKC,0.00,0.0,WeatherDisplay:10.37,2013-02-19 14:26:00,
2013-02-19 09:31:00,47.3,43.9,30.09,WNW,284,3.4,3.4,88,0.00,OVC,SKC,0.00,0.0,WeatherDisplay:10.37,2013-02-19 14:31:00,
2013-02-19 09:36:00,47.8,44.4,30.09,North,11,4.6,4.6,88,0.00,OVC,SKC,0.00,0.0,WeatherDisplay:10.37,2013-02-19 14:36:00,
2013-02-19 09:41:00,48.5,44.8,30.08,NNW,347,6.9,6.9,87,0.00,OVC,SKC,0.00,0.0,WeatherDisplay:10.37,2013-02-19 14:41:00,
2013-02-19 09:46:00,48.6,44.9,30.08,WSW,244,4.7,4.7,87,0.00,OVC,SKC,0.00,0.0,WeatherDisplay:10.37,2013-02-19 14:46:00,
2013-02-19 09:51:00,49.4,45.4,30.08,West,268,3.1,3.1,86,0.00,OVC,SKC,0.00,0.0,WeatherDisplay:10.37,2013-02-19 14:51:00,
2013-02-19 09:56:00,50.2,46.2,30.08,West,275,3.5,3.5,86,0.00,OVC,SKC,0.00,0.0,WeatherDisplay:10.37,2013-02-19 14:56:00,
2013-02-19 10:01:00,50.3,46.0,30.08,West,275,5.8,5.8,85,0.00,OVC,SKC,0.00,0.0,WeatherDisplay:10.37,2013-02-19 15:01:00,
2013-02-19 10:06:00,50.8,46.5,30.08,WNW,292,3.5,3.5,85,0.00,OVC,SKC,0.00,0.0,WeatherDisplay:10.37,2013-02-19 15:06:00,
2013-02-19 10:11:00,51.2,46.5,30.08,NNW,330,6.9,6.9,84,0.00,OVC,SKC,0.00,0.0,WeatherDisplay:10.37,2013-02-19 15:11:00,
2013-02-19 10:16:00,51.7,47.0,30.08,West,272,4.6,4.6,84,0.00,OVC,SKC,0.00,0.0,WeatherDisplay:10.37,2013-02-19 15:16:00,
2013-02-19 10:21:00,52.8,47.5,30.08,WNW,296,8.1,8.1,82,0.00,OVC,SKC,0.00,0.0,WeatherDisplay:10.37,2013-02-19 15:21:00,
2013-02-19 10:26:00,52.8,47.1,30.07,NW,323,8.1,8.1,81,0.00,OVC,SKC,0.00,0.0,WeatherDisplay:10.37,2013-02-19 15:26:00,
2013-02-19 10:31:00,53.0,47.0,30.07,NW,318,5.8,5.8,80,0.00,OVC,SKC,0.00,0.0,WeatherDisplay:10.37,2013-02-19 15:31:00,
2013-02-19 10:36:00,53.6,47.6,30.07,West,271,9.2,9.2,80,0.00,OVC,SKC,0.00,0.0,WeatherDisplay:10.37,2013-02-19 15:36:00,
2013-02-19 10:41:00,54.4,48.4,30.06,WNW,302,8.1,8.1,80,0.00,OVC,SKC,0.00,0.0,WeatherDisplay:10.37,2013-02-19 15:41:00,
2013-02-19 10:46:00,54.9,48.5,30.06,NW,326,4.6,4.6,79,0.00,OVC,SKC,0.00,0.0,WeatherDisplay:10.37,2013-02-19 15:46:00,
2013-02-19 10:51:00,55.6,48.8,30.05,NNW,339,6.9,6.9,78,0.00,OVC,SKC,0.00,0.0,WeatherDisplay:10.37,2013-02-19 15:51:00,
2013-02-19 10:56:00,56.2,49.4,30.05,North,11,8.1,8.1,78,0.00,OVC,SKC,0.00,0.0,WeatherDisplay:10.37,2013-02-19 15:56:00,
2013-02-19 11:01:00,56.9,49.4,30.04,NNW,329,9.2,9.2,76,0.00,OVC,SKC,0.00,0.0,WeatherDisplay:10.37,2013-02-19 16:01:00,
2013-02-19 11:06:00,57.7,49.8,30.04,NW,320,6.7,6.7,75,0.00,OVC,SKC,0.00,0.0,WeatherDisplay:10.37,2013-02-19 16:06:00,
2013-02-19 11:11:00,57.9,49.3,30.03,NW,323,9.2,9.2,73,0.00,OVC,SKC,0.00,0.0,WeatherDisplay:10.37,2013-02-19 16:11:00,
2013-02-19 11:16:00,58.7,49.7,30.03,WNW,292,10.4,10.4,72,0.00,OVC,SKC,0.00,0.0,WeatherDisplay:10.37,2013-02-19 16:16:00,
2013-02-19 11:21:00,58.9,49.5,30.03,NNW,344,17.3,17.3,71,0.00,OVC,SKC,0.00,0.0,WeatherDisplay:10.37,2013-02-19 16:21:00,
2013-02-19 11:26:00,58.7,49.3,30.03,NNE,13,12.7,12.7,71,0.00,OVC,SKC,0.00,0.0,WeatherDisplay:10.37,2013-02-19 16:26:00,
2013-02-19 11:31:00,58.9,49.5,30.03,NNW,330,8.1,8.1,71,0.00,OVC,SKC,0.00,0.0,WeatherDisplay:10.37,2013-02-19 16:31:00,
2013-02-19 11:36:00,58.1,50.2,30.02,NW,322,12.7,12.7,75,0.00,OVC,SKC,0.00,0.0,WeatherDisplay:10.37,2013-02-19 16:36:00,
2013-02-19 11:41:00,57.2,50.4,30.02,NNW,342,11.5,11.5,78,0.00,OVC,SKC,0.00,0.0,WeatherDisplay:10.37,2013-02-19 16:41:00,
2013-02-19 11:46:00,56.6,50.8,30.02,NNW,336,16.1,16.1,81,0.00,OVC,SKC,0.00,0.0,WeatherDisplay:10.37,2013-02-19 16:46:00,
2013-02-19 11:51:00,56.3,51.2,30.01,NW,323,10.4,10.4,83,0.00,OVC,SKC,0.00,0.0,WeatherDisplay:10.37,2013-02-19 16:51:00,
2013-02-19 11:56:00,56.4,51.0,30.02,NNW,330,13.8,13.8,82,0.00,OVC,SKC,0.00,0.0,WeatherDisplay:10.37,2013-02-19 16:56:00,
2013-02-19 12:01:00,55.8,50.7,30.02,NW,313,11.5,11.5,83,0.00,OVC,SKC,0.00,0.0,WeatherDisplay:10.37,2013-02-19 17:01:00,
2013-02-19 12:06:00,55.6,51.5,30.02,NNW,337,10.4,10.4,86,0.00,OVC,SKC,0.00,0.0,WeatherDisplay:10.37,2013-02-19 17:06:00,
2013-02-19 12:11:00,55.0,51.2,30.01,North,354,15.0,15.0,87,0.01,RA,SKC,0.01,0.0,WeatherDisplay:10.37,2013-02-19 17:11:00,
2013-02-19 12:16:00,55.0,51.8,30.01,NW,319,12.7,12.7,89,0.01,RA,SKC,0.01,0.0,WeatherDisplay:10.37,2013-02-19 17:16:00,
2013-02-19 12:21:00,54.6,52.0,30.00,NNW,333,15.0,15.0,91,0.01,OVC,SKC,0.01,0.0,WeatherDisplay:10.37,2013-02-19 17:21:00,
2013-02-19 12:26:00,54.3,51.7,30.00,NNW,332,13.8,13.8,91,0.01,OVC,SKC,0.01,0.0,WeatherDisplay:10.37,2013-02-19 17:26:00,
2013-02-19 12:31:00,54.6,52.6,30.00,NW,320,10.4,10.4,93,0.01,OVC,SKC,0.01,0.0,WeatherDisplay:10.37,2013-02-19 17:31:00,
2013-02-19 12:36:00,54.9,52.9,30.00,North,350,14.3,14.3,93,0.02,RA,SKC,0.02,0.0,WeatherDisplay:10.37,2013-02-19 17:36:00,
2013-02-19 12:41:00,54.7,53.3,29.99,NW,323,13.8,13.8,95,0.02,RA,SKC,0.02,0.0,WeatherDisplay:10.37,2013-02-19 17:41:00,
2013-02-19 12:46:00,54.6,52.9,29.99,North,352,13.8,13.8,94,0.02,OVC,SKC,0.02,0.0,WeatherDisplay:10.37,2013-02-19 17:46:00,
2013-02-19 12:51:00,54.8,53.4,29.99,NNW,342,13.8,13.8,95,0.02,OVC,SKC,0.02,0.0,WeatherDisplay:10.37,2013-02-19 17:51:00,
2013-02-19 12:56:00,54.9,53.2,29.98,NNW,343,11.5,11.5,94,0.02,OVC,SKC,0.02,0.0,WeatherDisplay:10.37,2013-02-19 17:56:00,
2013-02-19 13:01:00,54.7,53.3,29.98,North,360,12.7,12.7,95,0.02,OVC,SKC,0.02,0.0,WeatherDisplay:10.37,2013-02-19 18:01:00,
2013-02-19 13:06:00,54.7,53.0,29.97,NNW,347,15.0,15.0,94,0.03,RA,SKC,0.03,0.0,WeatherDisplay:10.37,2013-02-19 18:06:00,
2013-02-19 13:11:00,54.8,53.1,29.97,NW,325,13.8,13.8,94,0.02,RA,SKC,0.03,0.0,WeatherDisplay:10.37,2013-02-19 18:11:00,
2013-02-19 13:16:00,55.2,52.9,29.96,NNW,328,13.0,13.0,92,0.02,OVC,SKC,0.03,0.0,WeatherDisplay:10.37,2013-02-19 18:16:00,
2013-02-19 13:21:00,54.9,53.2,29.95,NW,318,9.2,9.2,94,0.02,OVC,SKC,0.03,0.0,WeatherDisplay:10.37,2013-02-19 18:21:00,
2013-02-19 13:26:00,54.6,52.6,29.95,NW,322,10.8,10.8,93,0.02,OVC,SKC,0.03,0.0,WeatherDisplay:10.37,2013-02-19 18:26:00,
2013-02-19 13:31:00,54.8,52.5,29.95,NNW,336,15.0,15.0,92,0.02,OVC,SKC,0.03,0.0,WeatherDisplay:10.37,2013-02-19 18:31:00,
2013-02-19 13:36:00,55.0,52.7,29.95,NW,312,15.0,15.0,92,0.01,OVC,SKC,0.03,0.0,WeatherDisplay:10.37,2013-02-19 18:36:00,
2013-02-19 13:41:00,55.1,52.5,29.94,NNW,346,23.0,23.0,91,0.01,OVC,SKC,0.03,0.0,WeatherDisplay:10.37,2013-02-19 18:41:00,
2013-02-19 13:46:00,54.9,52.3,29.94,NNW,340,11.5,11.5,91,0.01,OVC,SKC,0.03,0.0,WeatherDisplay:10.37,2013-02-19 18:46:00,
2013-02-19 13:51:00,54.7,52.1,29.93,North,1,15.0,15.0,91,0.01,OVC,SKC,0.03,0.0,WeatherDisplay:10.37,2013-02-19 18:51:00,
2013-02-19 13:56:00,54.7,51.8,29.93,NNE,18,15.0,15.0,90,0.01,OVC,SKC,0.03,0.0,WeatherDisplay:10.37,2013-02-19 18:56:00,
2013-02-19 14:01:00,55.4,52.8,29.93,NNE,21,10.4,10.4,91,0.01,OVC,SKC,0.03,0.0,WeatherDisplay:10.37,2013-02-19 19:01:00,
2013-02-19 14:06:00,55.6,53.3,29.92,North,349,12.7,12.7,92,0.00,OVC,SKC,0.03,0.0,WeatherDisplay:10.37,2013-02-19 19:06:00,
2013-02-19 14:11:00,55.6,52.7,29.92,NW,306,11.5,11.5,90,0.00,OVC,SKC,0.03,0.0,WeatherDisplay:10.37,2013-02-19 19:11:00,
2013-02-19 14:16:00,55.7,52.8,29.91,North,360,17.3,17.3,90,0.00,OVC,SKC,0.03,0.0,WeatherDisplay:10.37,2013-02-19 19:16:00,
2013-02-19 14:21:00,56.3,53.4,29.91,NNW,333,11.5,11.5,90,0.00,OVC,SKC,0.03,0.0,WeatherDisplay:10.37,2013-02-19 19:21:00,
2013-02-19 14:26:00,56.1,53.5,29.91,NW,325,12.7,12.7,91,0.00,OVC,SKC,0.03,0.0,WeatherDisplay:10.37,2013-02-19 19:26:00,
2013-02-19 14:31:00,55.7,52.5,29.90,NNW,337,13.8,13.8,89,0.00,OVC,SKC,0.03,0.0,WeatherDisplay:10.37,2013-02-19 19:31:00,
2013-02-19 14:36:00,55.9,52.7,29.91,NNE,20,9.2,9.2,89,0.00,OVC,SKC,0.03,0.0,WeatherDisplay:10.37,2013-02-19 19:36:00,
2013-02-19 14:41:00,56.2,53.0,29.91,NNE,13,13.8,13.8,89,0.00,OVC,SKC,0.03,0.0,WeatherDisplay:10.37,2013-02-19 19:41:00,
2013-02-19 14:46:00,56.2,52.7,29.90,NNW,329,12.7,12.7,88,0.00,OVC,SKC,0.03,0.0,WeatherDisplay:10.37,2013-02-19 19:46:00,
2013-02-19 14:51:00,56.5,53.0,29.89,NW,316,13.8,13.8,88,0.00,OVC,SKC,0.03,0.0,WeatherDisplay:10.37,2013-02-19 19:51:00,
2013-02-19 14:56:00,56.0,52.5,29.89,NW,320,13.8,13.8,88,0.00,OVC,SKC,0.03,0.0,WeatherDisplay:10.37,2013-02-19 19:56:00,
2013-02-19 15:01:00,56.2,52.1,29.89,NNW,337,27.6,27.6,86,0.00,OVC,SKC,0.03,0.0,WeatherDisplay:10.37,2013-02-19 20:01:00,
2013-02-19 15:06:00,56.4,52.3,29.88,NW,319,18.2,18.2,86,0.00,OVC,SKC,0.03,0.0,WeatherDisplay:10.37,2013-02-19 20:06:00,
2013-02-19 15:11:00,56.5,52.4,29.88,NW,311,12.7,12.7,86,0.00,OVC,SKC,0.03,0.0,WeatherDisplay:10.37,2013-02-19 20:11:00,
2013-02-19 15:16:00,56.2,52.1,29.88,NNW,332,12.7,12.7,86,0.00,OVC,SKC,0.03,0.0,WeatherDisplay:10.37,2013-02-19 20:16:00,
2013-02-19 15:21:00,56.7,51.9,29.87,NW,323,24.2,24.2,84,0.00,OVC,SKC,0.03,0.0,WeatherDisplay:10.37,2013-02-19 20:21:00,
2013-02-19 15:26:00,56.9,52.1,29.88,North,3,18.4,18.4,84,0.00,OVC,SKC,0.03,0.0,WeatherDisplay:10.37,2013-02-19 20:26:00,
2013-02-19 15:31:00,56.7,51.6,29.88,North,350,17.3,17.3,83,0.00,OVC,SKC,0.03,0.0,WeatherDisplay:10.37,2013-02-19 20:31:00,
2013-02-19 15:36:00,56.6,51.5,29.88,NW,323,18.4,18.4,83,0.00,OVC,SKC,0.03,0.0,WeatherDisplay:10.37,2013-02-19 20:36:00,
2013-02-19 15:41:00,56.5,52.0,29.88,North,7,20.7,20.7,85,0.00,OVC,SKC,0.03,0.0,WeatherDisplay:10.37,2013-02-19 20:41:00,
2013-02-19 15:46:00,55.8,52.3,29.88,NNW,330,25.3,25.3,88,0.00,OVC,SKC,0.03,0.0,WeatherDisplay:10.37,2013-02-19 20:46:00,
2013-02-19 15:52:00,55.1,52.8,29.88,NW,322,15.0,15.0,92,0.00,OVC,SKC,0.03,0.0,WeatherDisplay:10.37,2013-02-19 20:52:00,
2013-02-19 15:57:00,54.7,53.0,29.88,NW,325,18.4,18.4,94,0.00,OVC,SKC,0.03,0.0,WeatherDisplay:10.37,2013-02-19 20:57:00,
2013-02-19 16:02:00,54.6,53.2,29.88,NW,319,19.6,19.6,95,0.00,CLR,SKC,0.03,0.0,WeatherDisplay:10.37,2013-02-19 21:02:00,
2013-02-19 16:07:00,54.6,53.2,29.87,NW,322,19.6,19.6,95,0.00,CLR,SKC,0.03,0.0,WeatherDisplay:10.37,2013-02-19 21:07:00,
2013-02-19 16:12:00,54.3,52.9,29.87,NNW,340,15.0,15.0,95,0.00,CLR,SKC,0.03,0.0,WeatherDisplay:10.37,2013-02-19 21:12:00,
2013-02-19 16:18:00,54.6,53.2,29.87,North,1,17.3,17.3,95,0.00,CLR,SKC,0.03,0.0,WeatherDisplay:10.37,2013-02-19 21:18:00,
2013-02-19 16:23:00,54.5,53.1,29.87,NW,322,15.0,15.0,95,0.00,CLR,SKC,0.03,0.0,WeatherDisplay:10.37,2013-02-19 21:23:00,
2013-02-19 16:28:00,54.3,53.2,29.86,NNW,336,16.8,16.8,96,0.00,CLR,SKC,0.03,0.0,WeatherDisplay:10.37,2013-02-19 21:28:00,
2013-02-19 16:33:00,54.4,53.3,29.86,NNW,333,18.4,18.4,96,0.00,CLR,SKC,0.03,0.0,WeatherDisplay:10.37,2013-02-19 21:33:00,
2013-02-19 16:38:00,54.2,53.1,29.86,North,7,17.5,17.5,96,0.00,CLR,SKC,0.03,0.0,WeatherDisplay:10.37,2013-02-19 21:38:00,
2013-02-19 16:43:00,54.1,53.3,29.85,NNW,346,17.3,17.3,97,0.00,CLR,SKC,0.03,0.0,WeatherDisplay:10.37,2013-02-19 21:43:00,
2013-02-19 16:48:00,53.9,53.1,29.85,North,354,11.5,11.5,97,0.00,CLR,SKC,0.03,0.0,WeatherDisplay:10.37,2013-02-19 21:48:00,
2013-02-19 16:53:00,54.0,53.2,29.85,North,1,13.8,13.8,97,0.00,CLR,SKC,0.03,0.0,WeatherDisplay:10.37,2013-02-19 21:53:00,
2013-02-19 16:58:00,53.9,53.1,29.85,NW,313,15.0,15.0,97,0.00,CLR,SKC,0.03,0.0,WeatherDisplay:10.37,2013-02-19 21:58:00,
2013-02-19 17:03:00,53.6,52.8,29.85,NW,316,13.8,13.8,97,0.00,CLR,SKC,0.03,0.0,WeatherDisplay:10.37,2013-02-19 22:03:00,
2013-02-19 17:08:00,53.8,53.2,29.85,NNW,329,12.7,12.7,98,0.00,CLR,SKC,0.03,0.0,WeatherDisplay:10.37,2013-02-19 22:08:00,
2013-02-19 17:13:00,53.8,53.2,29.85,NW,325,17.2,17.2,98,0.00,CLR,SKC,0.03,0.0,WeatherDisplay:10.37,2013-02-19 22:13:00,
2013-02-19 17:18:00,53.9,53.3,29.85,North,359,11.5,11.5,98,0.00,CLR,SKC,0.03,0.0,WeatherDisplay:10.37,2013-02-19 22:18:00,
2013-02-19 17:23:00,53.9,53.3,29.85,North,354,16.1,16.1,98,0.00,CLR,SKC,0.03,0.0,WeatherDisplay:10.37,2013-02-19 22:23:00,
2013-02-19 17:28:00,53.9,53.3,29.86,NW,323,13.8,13.8,98,0.00,CLR,SKC,0.03,0.0,WeatherDisplay:10.37,2013-02-19 22:28:00,
2013-02-19 17:33:00,54.3,53.7,29.86,NNW,347,11.2,11.2,98,0.00,CLR,SKC,0.03,0.0,WeatherDisplay:10.37,2013-02-19 22:33:00,
2013-02-19 17:38:00,53.6,53.0,29.86,NW,320,10.4,10.4,98,0.00,CLR,SKC,0.03,0.0,WeatherDisplay:10.37,2013-02-19 22:38:00,
2013-02-19 17:43:00,54.0,53.4,29.86,North,352,10.4,10.4,98,0.00,CLR,SKC,0.03,0.0,WeatherDisplay:10.37,2013-02-19 22:43:00,
2013-02-19 17:48:00,54.2,53.6,29.86,NW,322,15.0,15.0,98,0.00,CLR,SKC,0.03,0.0,WeatherDisplay:10.37,2013-02-19 22:48:00,
2013-02-19 17:53:00,54.1,53.5,29.86,NNW,339,12.7,12.7,98,0.00,CLR,SKC,0.03,0.0,WeatherDisplay:10.37,2013-02-19 22:53:00,
2013-02-19 17:58:00,54.3,53.5,29.87,NNW,347,12.7,12.7,97,0.00,CLR,SKC,0.03,0.0,WeatherDisplay:10.37,2013-02-19 22:58:00,
2013-02-19 18:03:00,54.2,53.1,29.87,NNW,330,13.8,13.8,96,0.00,CLR,SKC,0.03,0.0,WeatherDisplay:10.37,2013-02-19 23:03:00,
2013-02-19 18:08:00,54.5,53.4,29.87,NNW,346,13.8,13.8,96,0.00,CLR,SKC,0.03,0.0,WeatherDisplay:10.37,2013-02-19 23:08:00,
2013-02-19 18:13:00,54.0,52.9,29.87,NNW,336,17.3,17.3,96,0.00,CLR,SKC,0.03,0.0,WeatherDisplay:10.37,2013-02-19 23:13:00,
2013-02-19 18:18:00,54.8,53.7,29.87,WNW,299,16.0,16.0,96,0.00,CLR,SKC,0.03,0.0,WeatherDisplay:10.37,2013-02-19 23:18:00,
2013-02-19 18:23:00,54.9,53.8,29.88,North,8,13.8,13.8,96,0.00,CLR,SKC,0.03,0.0,WeatherDisplay:10.37,2013-02-19 23:23:00,
2013-02-19 18:28:00,54.8,53.7,29.88,NNW,344,13.8,13.8,96,0.00,CLR,SKC,0.03,0.0,WeatherDisplay:10.37,2013-02-19 23:28:00,
2013-02-19 18:33:00,54.8,53.4,29.88,NNE,31,15.0,15.0,95,0.00,CLR,SKC,0.03,0.0,WeatherDisplay:10.37,2013-02-19 23:33:00,
2013-02-19 18:38:00,55.0,53.6,29.89,NE,49,10.4,10.4,95,0.00,CLR,SKC,0.03,0.0,WeatherDisplay:10.37,2013-02-19 23:38:00,
2013-02-19 18:43:00,55.3,53.9,29.89,NE,34,8.8,8.8,95,0.00,CLR,SKC,0.03,0.0,WeatherDisplay:10.37,2013-02-19 23:43:00,
2013-02-19 18:48:00,55.0,53.6,29.89,NNE,20,9.2,9.2,95,0.00,CLR,SKC,0.03,0.0,WeatherDisplay:10.37,2013-02-19 23:48:00,
2013-02-19 18:53:00,55.3,53.9,29.90,East,90,9.2,9.2,95,0.00,CLR,SKC,0.03,0.0,WeatherDisplay:10.37,2013-02-19 23:53:00,
2013-02-19 18:58:00,54.7,53.3,29.90,North,1,9.2,9.2,95,0.00,CLR,SKC,0.03,0.0,WeatherDisplay:10.37,2013-02-19 23:58:00,
2013-02-19 19:03:00,54.4,52.7,29.90,North,11,12.7,12.7,94,0.00,CLR,SKC,0.03,0.0,WeatherDisplay:10.37,2013-02-20 00:03:00,
2013-02-19 19:08:00,54.4,52.7,29.91,NNE,24,13.8,13.8,94,0.00,CLR,SKC,0.03,0.0,WeatherDisplay:10.37,2013-02-20 00:08:00,
2013-02-19 19:14:00,54.6,52.9,29.91,NNE,21,6.9,6.9,94,0.00,CLR,SKC,0.03,0.0,WeatherDisplay:10.37,2013-02-20 00:14:00,
2013-02-19 19:19:00,54.7,53.0,29.91,NNE,17,12.7,12.7,94,0.00,CLR,SKC,0.03,0.0,WeatherDisplay:10.37,2013-02-20 00:19:00,
2013-02-19 19:24:00,54.5,52.8,29.91,NE,37,10.4,10.4,94,0.00,CLR,SKC,0.03,0.0,WeatherDisplay:10.37,2013-02-20 00:24:00,
2013-02-19 19:29:00,54.5,53.1,29.92,NE,41,8.1,8.1,95,0.00,CLR,SKC,0.03,0.0,WeatherDisplay:10.37,2013-02-20 00:29:00,
2013-02-19 19:34:00,54.1,52.4,29.92,NNE,27,11.5,11.5,94,0.00,CLR,SKC,0.03,0.0,WeatherDisplay:10.37,2013-02-20 00:34:00,
2013-02-19 19:39:00,53.5,51.8,29.92,NNE,18,9.2,9.2,94,0.00,CLR,SKC,0.03,0.0,WeatherDisplay:10.37,2013-02-20 00:39:00,
2013-02-19 19:44:00,53.6,51.9,29.92,NE,49,9.2,9.2,94,0.00,CLR,SKC,0.03,0.0,WeatherDisplay:10.37,2013-02-20 00:44:00,
2013-02-19 19:49:00,53.5,51.8,29.92,NNE,21,10.5,10.5,94,0.00,CLR,SKC,0.03,0.0,WeatherDisplay:10.37,2013-02-20 00:49:00,
2013-02-19 19:54:00,53.6,51.6,29.92,ENE,78,10.4,10.4,93,0.00,CLR,SKC,0.03,0.0,WeatherDisplay:10.37,2013-02-20 00:54:00,
2013-02-19 19:59:00,53.4,51.4,29.93,NE,34,10.4,10.4,93,0.00,CLR,SKC,0.03,0.0,WeatherDisplay:10.37,2013-02-20 00:59:00,
2013-02-19 20:04:00,53.6,51.6,29.93,ENE,61,11.5,11.5,93,0.00,CLR,SKC,0.03,0.0,WeatherDisplay:10.37,2013-02-20 01:04:00,
2013-02-19 20:09:00,53.1,51.1,29.93,NNE,23,11.5,11.5,93,0.00,CLR,SKC,0.03,0.0,WeatherDisplay:10.37,2013-02-20 01:09:00,
2013-02-19 20:14:00,52.7,50.7,29.93,NNE,28,11.5,11.5,93,0.00,CLR,SKC,0.03,0.0,WeatherDisplay:10.37,2013-02-20 01:14:00,
2013-02-19 20:19:00,52.3,50.0,29.93,NE,45,8.1,8.1,92,0.00,CLR,SKC,0.03,0.0,WeatherDisplay:10.37,2013-02-20 01:19:00,
2013-02-19 20:24:00,52.6,50.3,29.93,NNE,30,10.4,10.4,92,0.00,CLR,SKC,0.03,0.0,WeatherDisplay:10.37,2013-02-20 01:24:00,
2013-02-19 20:29:00,52.0,49.5,29.93,ENE,64,10.4,10.4,91,0.00,CLR,SKC,0.03,0.0,WeatherDisplay:10.37,2013-02-20 01:29:00,
2013-02-19 20:34:00,51.9,49.4,29.94,NNE,16,6.9,6.9,91,0.00,CLR,SKC,0.03,0.0,WeatherDisplay:10.37,2013-02-20 01:34:00,
2013-02-19 20:39:00,52.2,49.4,29.94,NNE,17,8.1,8.1,90,0.00,CLR,SKC,0.03,0.0,WeatherDisplay:10.37,2013-02-20 01:39:00,
2013-02-19 20:44:00,51.7,48.9,29.94,North,352,9.2,9.2,90,0.00,CLR,SKC,0.03,0.0,WeatherDisplay:10.37,2013-02-20 01:44:00,
2013-02-19 20:49:00,51.7,48.9,29.94,NNE,24,9.2,9.2,90,0.00,CLR,SKC,0.03,0.0,WeatherDisplay:10.37,2013-02-20 01:49:00,
2013-02-19 20:54:00,51.2,48.4,29.95,North,1,8.5,8.5,90,0.00,CLR,SKC,0.03,0.0,WeatherDisplay:10.37,2013-02-20 01:54:00,
2013-02-19 20:59:00,51.1,48.3,29.95,NNE,31,9.2,9.2,90,0.00,CLR,SKC,0.03,0.0,WeatherDisplay:10.37,2013-02-20 01:59:00,
2013-02-19 21:04:00,50.9,48.1,29.95,NE,37,9.2,9.2,90,0.00,CLR,SKC,0.03,0.0,WeatherDisplay:10.37,2013-02-20 02:04:00,
2013-02-19 21:09:00,51.0,48.2,29.95,NE,47,8.1,8.1,90,0.00,CLR,SKC,0.03,0.0,WeatherDisplay:10.37,2013-02-20 02:09:00,
2013-02-19 21:14:00,50.6,47.8,29.95,East,99,9.2,9.2,90,0.00,CLR,SKC,0.03,0.0,WeatherDisplay:10.37,2013-02-20 02:14:00,
2013-02-19 21:19:00,50.6,47.8,29.96,ENE,68,10.4,10.4,90,0.00,CLR,SKC,0.03,0.0,WeatherDisplay:10.37,2013-02-20 02:19:00,
2013-02-19 21:24:00,50.1,47.3,29.96,NE,37,8.1,8.1,90,0.00,CLR,SKC,0.03,0.0,WeatherDisplay:10.37,2013-02-20 02:24:00,
2013-02-19 21:29:00,50.0,47.2,29.96,NNW,339,9.2,9.2,90,0.00,CLR,SKC,0.03,0.0,WeatherDisplay:10.37,2013-02-20 02:29:00,
2013-02-19 21:34:00,49.6,46.8,29.96,North,3,8.1,8.1,90,0.00,CLR,SKC,0.03,0.0,WeatherDisplay:10.37,2013-02-20 02:34:00,
2013-02-19 21:39:00,49.6,47.1,29.96,NE,40,6.9,6.9,91,0.00,CLR,SKC,0.03,0.0,WeatherDisplay:10.37,2013-02-20 02:39:00,
2013-02-19 21:44:00,49.7,47.2,29.96,NE,52,9.2,9.2,91,0.00,CLR,SKC,0.03,0.0,WeatherDisplay:10.37,2013-02-20 02:44:00,
2013-02-19 21:49:00,49.7,47.2,29.96,North,0,9.2,9.2,91,0.00,CLR,SKC,0.03,0.0,WeatherDisplay:10.37,2013-02-20 02:49:00,
2013-02-19 21:54:00,49.4,46.9,29.96,North,1,8.1,8.1,91,0.00,CLR,SKC,0.03,0.0,WeatherDisplay:10.37,2013-02-20 02:54:00,
2013-02-19 21:59:00,49.4,46.9,29.96,North,360,9.2,9.2,91,0.00,CLR,SKC,0.03,0.0,WeatherDisplay:10.37,2013-02-20 02:59:00,
2013-02-19 22:04:00,49.2,46.7,29.96,NNW,342,9.2,9.2,91,0.00,CLR,SKC,0.03,0.0,WeatherDisplay:10.37,2013-02-20 03:04:00,
2013-02-19 22:09:00,48.8,46.3,29.96,NE,34,8.1,8.1,91,0.00,CLR,SKC,0.03,0.0,WeatherDisplay:10.37,2013-02-20 03:09:00,
2013-02-19 22:14:00,48.7,46.2,29.96,NNW,344,8.1,8.1,91,0.00,CLR,SKC,0.03,0.0,WeatherDisplay:10.37,2013-02-20 03:14:00,
2013-02-19 22:19:00,48.4,46.2,29.97,NNW,336,9.2,9.2,92,0.00,CLR,SKC,0.03,0.0,WeatherDisplay:10.37,2013-02-20 03:19:00,
2013-02-19 22:24:00,48.4,46.2,29.96,North,352,9.2,9.2,92,0.00,CLR,SKC,0.03,0.0,WeatherDisplay:10.37,2013-02-20 03:24:00,
2013-02-19 22:29:00,48.7,46.5,29.96,NNW,329,8.1,8.1,92,0.00,CLR,SKC,0.03,0.0,WeatherDisplay:10.37,2013-02-20 03:29:00,
2013-02-19 22:34:00,48.7,46.8,29.96,NNW,346,5.8,5.8,93,0.00,CLR,SKC,0.03,0.0,WeatherDisplay:10.37,2013-02-20 03:34:00,
2013-02-19 22:39:00,47.8,45.9,29.96,NNE,17,5.8,5.8,93,0.00,CLR,SKC,0.03,0.0,WeatherDisplay:10.37,2013-02-20 03:39:00,
2013-02-19 22:44:00,48.2,46.3,29.97,North,359,5.8,5.8,93,0.00,CLR,SKC,0.03,0.0,WeatherDisplay:10.37,2013-02-20 03:44:00,
2013-02-19 22:49:00,47.5,45.6,29.96,NE,47,5.6,5.6,93,0.00,CLR,SKC,0.03,0.0,WeatherDisplay:10.37,2013-02-20 03:49:00,
2013-02-19 22:54:00,48.1,46.2,29.96,NE,42,6.9,6.9,93,0.00,CLR,SKC,0.03,0.0,WeatherDisplay:10.37,2013-02-20 03:54:00,
2013-02-19 22:59:00,47.8,46.2,29.96,North,0,5.8,5.8,94,0.00,CLR,SKC,0.03,0.0,WeatherDisplay:10.37,2013-02-20 03:59:00,
2013-02-19 23:04:00,47.6,46.0,29.96,NNE,28,5.8,5.8,94,0.00,CLR,SKC,0.03,0.0,WeatherDisplay:10.37,2013-02-20 04:04:00,
2013-02-19 23:09:00,47.6,46.0,29.96,NNE,32,6.9,6.9,94,0.00,CLR,SKC,0.03,0.0,WeatherDisplay:10.37,2013-02-20 04:09:00,
2013-02-19 23:14:00,47.4,46.0,29.96,NNE,18,5.8,5.8,95,0.00,CLR,SKC,0.03,0.0,WeatherDisplay:10.37,2013-02-20 04:14:00,
2013-02-19 23:19:00,47.5,46.1,29.96,ENE,58,8.1,8.1,95,0.00,CLR,SKC,0.03,0.0,WeatherDisplay:10.37,2013-02-20 04:19:00,
2013-02-19 23:24:00,47.3,45.9,29.96,NE,40,6.9,6.9,95,0.00,CLR,SKC,0.03,0.0,WeatherDisplay:10.37,2013-02-20 04:24:00,
2013-02-19 23:29:00,47.0,45.6,29.96,North,359,5.8,5.8,95,0.00,CLR,SKC,0.03,0.0,WeatherDisplay:10.37,2013-02-20 04:29:00,
2013-02-19 23:34:00,46.7,45.3,29.96,NE,35,5.8,5.8,95,0.00,CLR,SKC,0.03,0.0,WeatherDisplay:10.37,2013-02-20 04:34:00,
2013-02-19 23:39:00,46.7,45.6,29.96,NNE,31,6.9,6.9,96,0.00,CLR,SKC,0.03,0.0,WeatherDisplay:10.37,2013-02-20 04:39:00,
2013-02-19 23:44:00,46.2,45.1,29.96,NNE,14,4.7,4.7,96,0.00,CLR,SKC,0.03,0.0,WeatherDisplay:10.37,2013-02-20 04:44:00,
2013-02-19 23:49:00,46.3,45.2,29.96,North,359,6.5,6.5,96,0.00,CLR,SKC,0.03,0.0,WeatherDisplay:10.37,2013-02-20 04:49:00,
2013-02-19 23:54:00,46.2,45.1,29.96,ENE,58,4.6,4.6,96,0.00,CLR,SKC,0.03,0.0,WeatherDisplay:10.37,2013-02-20 04:54:00,
2013-02-19 23:59:00,46.1,45.0,29.96,NE,49,5.8,5.8,96,0.00,CLR,SKC,0.03,0.0,WeatherDisplay:10.37,2013-02-20 04:59:00,